Waarnemingen

Advertentie
Mijn weer
Antwerpen, België (6450): temperatuur & dauwpunt: 19.04.2018 14:00:00 - 25.04.2018 14:00:00 (CEST)Antwerpen, België (6450): windsnelheid & windstoten: 19.04.2018 14:00:00 - 25.04.2018 14:00:00 (CEST)Antwerpen, België (6450): windrichting: 19.04.2018 14:00:00 - 25.04.2018 14:00:00 (CEST)Antwerpen, België (6450): luchtdruk: 19.04.2018 14:00:00 - 25.04.2018 14:00:00 (CEST)Antwerpen, België (6450): zicht: 19.04.2018 14:00:00 - 25.04.2018 14:00:00 (CEST)
Datum & Tijd tt [°C] td [°C] ff [km/u] ff [kn] fx [km/u] fx [kn] dd ppp [hPa] vv [km]
25.04.2018 14:00:00 13,0 5,7 21 11 - - NW 1013,2 10
25.04.2018 13:00:00 12,8 5,0 16 9 36 19 W 1013,3 10
25.04.2018 12:00:00 12,6 5,6 24 13 43 23 W 1013,3 10
25.04.2018 11:00:00 11,7 5,6 22 12 - - WNW 1012,6 10
25.04.2018 10:00:00 11,4 7,8 18 10 36 19 WNW 1011,8 10
25.04.2018 09:00:00 11,6 7,8 18 10 36 19 WNW 1011,1 10
25.04.2018 08:00:00 11,8 9,9 18 10 - - WZW 1010,2 10
25.04.2018 07:00:00 11,6 10,2 21 11 43 23 WZW 1009,7 10
25.04.2018 06:00:00 11,8 10,4 26 14 47 25 WZW 1009,4 4,7
25.04.2018 05:00:00 13,4 9,5 31 17 - - WZW 1008,9 10
25.04.2018 04:00:00 13,6 10,0 26 14 47 25 W 1009,3 10
25.04.2018 03:00:00 13,8 9,9 18 10 36 19 WZW 1009,3 10
25.04.2018 02:00:00 14,1 9,9 18 10 - - WZW 1009,7 10
25.04.2018 01:00:00 14,3 10,3 15 8 32 18 ZW 1010,5 10
25.04.2018 00:00:00 14,5 10,4 11 6 22 12 W 1011,1 10
24.04.2018 23:00:00 14,7 9,7 9 5 - - W 1011,8 10
24.04.2018 22:00:00 15,3 9,6 8 4 14 8 WZW 1012,6 10
24.04.2018 21:00:00 15,5 9,1 9 5 22 12 ZW 1012,9 10
24.04.2018 20:00:00 15,8 9,0 11 6 - - ZW 1013,3 10
24.04.2018 19:00:00 15,6 8,4 13 7 29 16 ZW 1014,1 10
24.04.2018 18:00:00 15,7 8,5 18 10 32 18 ZW 1014,8 10
24.04.2018 17:00:00 15,7 8,9 18 10 - - ZW 1015,5 10
24.04.2018 16:00:00 15,2 8,5 18 10 29 16 ZZW 1016,3 10
24.04.2018 15:00:00 14,5 8,8 18 10 29 16 ZZW 1017,1 10
24.04.2018 14:00:00 13,5 8,7 14 8 - - ZW 1017,5 15
24.04.2018 13:00:00 12,0 8,2 16 9 25 14 ZZW 1018,0 10
24.04.2018 12:00:00 11,8 8,1 16 9 25 14 ZZW 1018,0 10
24.04.2018 11:00:00 11,5 8,0 15 8 - - ZW 1017,6 10
24.04.2018 10:00:00 10,8 7,4 18 10 25 14 ZZW 1017,6 16
24.04.2018 09:00:00 10,3 6,7 15 8 25 14 ZW 1017,3 10
24.04.2018 08:00:00 10,0 6,2 15 8 - - ZW 1017,0 10
24.04.2018 07:00:00 9,3 5,7 18 10 29 16 WZW 1016,8 10
24.04.2018 06:00:00 9,2 5,4 18 10 25 14 ZW 1016,5 10
24.04.2018 05:00:00 9,2 5,4 15 8 - - ZW 1017,1 10
24.04.2018 04:00:00 9,0 5,3 15 8 25 14 ZW 1017,1 10
24.04.2018 03:00:00 9,2 5,4 15 8 29 16 ZW 1017,2 10
24.04.2018 02:00:00 9,5 5,3 15 8 - - ZW 1017,7 10
24.04.2018 01:00:00 9,9 5,5 16 9 32 18 ZW 1017,9 10
24.04.2018 00:00:00 10,3 5,5 21 11 40 21 WZW 1018,1 10
23.04.2018 23:00:00 11,4 5,6 24 13 - - WZW 1018,1 10
23.04.2018 22:00:00 12,3 5,3 15 8 32 18 WZW 1017,8 10
23.04.2018 21:00:00 13,5 5,5 18 10 36 19 WZW 1017,5 10
23.04.2018 20:00:00 14,8 5,0 18 10 - - WZW 1017,2 30
23.04.2018 19:00:00 16,1 6,4 18 10 29 16 W 1017,1 30
23.04.2018 18:00:00 16,0 6,9 11 6 36 19 WNW 1017,1 30
23.04.2018 17:00:00 16,5 5,7 22 12 - - WNW 1017,2 30
23.04.2018 16:00:00 16,0 5,9 18 10 29 16 W 1017,3 30
23.04.2018 15:00:00 16,0 6,1 18 10 32 18 W 1017,4 30
23.04.2018 14:00:00 16,4 6,4 22 12 - - WZW 1017,2 25
23.04.2018 13:00:00 15,8 5,5 22 12 32 18 WZW 1017,3 20
23.04.2018 12:00:00 14,5 7,1 18 10 29 16 W 1017,3 20
23.04.2018 11:00:00 14,2 7,8 18 10 - - W 1016,8 20
23.04.2018 10:00:00 12,6 8,3 15 8 25 14 WZW 1016,3 10
23.04.2018 09:00:00 12,3 8,6 14 8 25 14 WZW 1015,6 20
23.04.2018 08:00:00 11,5 8,5 14 8 - - WZW 1015,3 25
23.04.2018 07:00:00 11,7 7,8 11 6 22 12 WZW 1014,6 25
23.04.2018 06:00:00 12,6 7,2 11 6 25 14 WZW 1014,1 22
23.04.2018 05:00:00 13,5 6,9 18 10 - - W 1013,9 35
23.04.2018 04:00:00 14,1 7,2 14 8 29 16 W 1013,1 30
23.04.2018 03:00:00 15,1 8,0 16 9 25 14 W 1013,0 10
23.04.2018 02:00:00 16,0 9,3 13 7 - - ZW 1012,6 10
23.04.2018 01:00:00 17,8 9,1 15 8 29 16 W 1012,2 10
23.04.2018 00:00:00 18,8 9,8 16 9 25 14 ZW 1012,0 10
22.04.2018 23:00:00 19,4 11,1 9 5 - - WZW 1011,4 10
22.04.2018 22:00:00 19,8 12,5 13 7 18 10 W 1011,1 10
22.04.2018 21:00:00 19,3 11,8 5 3 18 10 NNW 1010,4 10
22.04.2018 20:00:00 21,2 12,7 14 8 - - NW 1010,0 18
22.04.2018 19:00:00 22,7 13,3 14 8 32 18 NW 1009,8 20
22.04.2018 18:00:00 21,6 13,1 22 12 43 23 NW 1009,8 25
22.04.2018 17:00:00 25,4 13,5 18 10 - - W 1009,0 25
22.04.2018 16:00:00 25,8 11,9 25 14 40 21 ZW 1009,6 25
22.04.2018 15:00:00 26,7 12,2 18 10 36 19 ZZW 1009,8 25
22.04.2018 14:00:00 25,9 10,9 16 9 - - Z 1010,2 10
22.04.2018 13:00:00 24,2 12,5 11 6 25 14 ZZO 1010,8 10
22.04.2018 12:00:00 22,4 14,5 5 3 14 8 ONO 1011,5 10
22.04.2018 11:00:00 19,4 14,4 11 6 - - ZO 1012,3 8
22.04.2018 10:00:00 18,1 11,5 8 4 14 8 ZZO 1012,7 10
22.04.2018 09:00:00 14,7 11,3 4 2 7 4 - 1012,9 10
22.04.2018 08:00:00 11,7 10,0 0 0 - - N 1013,5 10
22.04.2018 07:00:00 11,1 8,4 0 0 4 2 N 1013,7 10
22.04.2018 06:00:00 11,2 8,3 0 0 4 2 N 1013,8 9
22.04.2018 05:00:00 13,0 8,2 4 2 - - O 1014,3 12
22.04.2018 04:00:00 13,8 8,0 7 4 7 4 ONO 1015,2 15
22.04.2018 03:00:00 14,1 7,3 4 2 11 6 NO 1015,9 15
22.04.2018 02:00:00 14,1 7,8 9 5 - - O 1016,3 10
22.04.2018 01:00:00 14,6 8,6 8 4 14 8 O 1017,0 10
22.04.2018 00:00:00 15,5 8,5 9 5 11 6 O 1017,6 10
21.04.2018 23:00:00 16,7 8,9 8 4 - - O 1018,0 10
21.04.2018 22:00:00 18,2 10,0 9 5 11 6 ONO 1018,1 10
21.04.2018 21:00:00 19,7 10,7 9 5 22 12 NO 1018,2 10
21.04.2018 20:00:00 21,5 10,1 11 6 - - NNO 1018,3 25
21.04.2018 19:00:00 22,6 11,3 11 6 18 10 O 1018,6 25
21.04.2018 18:00:00 23,0 12,0 7 4 18 10 O 1019,1 15
21.04.2018 17:00:00 23,1 12,2 7 4 - - NNO 1019,8 15
21.04.2018 16:00:00 23,3 12,6 7 4 25 14 - 1020,5 12
21.04.2018 15:00:00 22,5 11,8 7 4 14 8 NNO 1021,1 12
21.04.2018 14:00:00 22,0 11,7 9 5 - - NO 1021,6 10
21.04.2018 13:00:00 20,6 10,8 9 5 14 8 ONO 1022,3 9
21.04.2018 12:00:00 18,6 11,2 5 3 11 6 O 1022,8 5
21.04.2018 11:00:00 16,5 11,5 5 3 - - ZO 1023,1 4,8
21.04.2018 10:00:00 15,0 11,0 5 3 11 6 OZO 1023,1 4,4
21.04.2018 09:00:00 13,3 10,3 5 3 11 6 O 1023,1 3,5
21.04.2018 08:00:00 11,3 9,4 7 4 - - NNO 1023,0 2,4
21.04.2018 07:00:00 10,6 8,4 7 4 14 8 N 1022,6 2,7
21.04.2018 06:00:00 10,6 8,2 2 1 4 2 - 1022,4 3,0
21.04.2018 05:00:00 8,2 7,5 0 0 - - N 1022,5 1,5
21.04.2018 04:00:00 11,7 9,0 0 0 7 4 N 1022,5 2,6
21.04.2018 03:00:00 12,0 9,2 7 4 11 6 NNW 1022,6 3,7
21.04.2018 02:00:00 13,2 9,7 5 3 - - NW 1022,9 4,3
21.04.2018 01:00:00 13,7 10,1 9 5 14 8 NNW 1022,8 4,8
21.04.2018 00:00:00 15,2 10,7 9 5 14 8 NNW 1022,8 5
20.04.2018 23:00:00 16,4 11,0 5 3 - - NW 1022,6 6
20.04.2018 22:00:00 17,4 10,8 16 9 25 14 NNW 1022,6 7
20.04.2018 21:00:00 18,5 11,0 16 9 25 14 NW 1022,3 10
20.04.2018 20:00:00 21,5 11,6 16 9 - - NW 1022,0 10
20.04.2018 19:00:00 24,0 6,8 14 8 29 16 NW 1022,0 30
20.04.2018 18:00:00 24,9 7,0 18 10 25 14 WNW 1022,1 25
20.04.2018 17:00:00 25,3 6,7 22 12 - - NW 1022,3 25
20.04.2018 16:00:00 25,5 11,2 18 10 29 16 NW 1022,5 25
20.04.2018 15:00:00 25,5 13,6 14 8 32 18 W 1022,6 25
20.04.2018 14:00:00 26,0 11,5 15 8 - - W 1022,9 10
20.04.2018 13:00:00 26,1 11,5 9 5 22 12 W 1023,2 10
20.04.2018 12:00:00 24,5 11,8 11 6 18 10 WZW 1023,4 10
20.04.2018 11:00:00 22,6 11,4 11 6 - - ZW 1023,3 10
20.04.2018 10:00:00 21,0 11,1 7 4 14 8 ZW 1023,1 25
20.04.2018 09:00:00 18,2 12,6 4 2 7 4 ZO 1023,0 25
20.04.2018 08:00:00 13,9 11,8 4 2 - - Z 1023,2 25
20.04.2018 07:00:00 11,8 9,3 4 2 7 4 ZZO 1023,0 25
20.04.2018 06:00:00 12,1 9,7 7 4 7 4 ZZO 1023,0 18
20.04.2018 05:00:00 12,4 10,3 4 2 - - ZO 1023,2 14
20.04.2018 04:00:00 12,6 10,4 7 4 7 4 ZO 1023,6 16
20.04.2018 03:00:00 12,3 10,3 7 4 7 4 ZO 1023,8 14
20.04.2018 02:00:00 13,9 10,3 4 2 - - Z 1023,9 20
20.04.2018 01:00:00 14,7 10,7 4 2 4 2 WNW 1023,9 20
20.04.2018 00:00:00 15,9 10,4 0 0 4 2 N 1024,0 22
19.04.2018 23:00:00 18,2 10,4 0 0 - - N 1024,1 35
19.04.2018 22:00:00 23,3 10,2 7 4 14 8 WZW 1024,0 35
19.04.2018 21:00:00 25,0 8,8 7 4 18 10 WZW 1023,4 35
19.04.2018 20:00:00 27,5 6,2 7 4 - - Z 1023,2 35
19.04.2018 19:00:00 28,0 8,0 9 5 22 12 ZZO 1023,3 10
19.04.2018 18:00:00 28,2 8,0 13 7 25 14 ZZO 1023,4 10
19.04.2018 17:00:00 27,5 12,1 13 7 - - ZZO 1023,8 10
19.04.2018 16:00:00 27,4 10,1 13 7 29 16 Z 1024,4 10
19.04.2018 15:00:00 26,9 11,5 13 7 22 12 ZO 1024,9 10
19.04.2018 14:00:00 25,6 10,2 13 7 - - ZO 1025,4 10

tt = temperatuur
td = dauwpunt
ff = windsnelheid
fx = windstoten
dd = windrichting
ppp = luchtdruk
vv = zicht

Weerstations in de omgeving